{"data":{"norad_id":45016,"epoch":"2026-09-20T04:28:02.936640Z","epoch_age_seconds":73356,"freshness":"FRESH","line1":"1 45016U 20003A   26263.18614510  .00001649  00000+0  10203-3 0  9994","line2":"2 45016  97.4948 335.2731 0009057 344.8775  15.2182 15.11166062369671","mean_motion":15.11166062,"eccentricity":0.0009057,"inclination_deg":97.4948,"raan_deg":335.2731,"arg_perigee_deg":344.8775,"mean_anomaly_deg":15.2182,"bstar":0.00010203,"rev_number":36967,"period_min":95.290652444523,"perigee_km":526.3835762503,"apogee_km":538.90176254344,"semimajor_km":6910.7796693969,"source":"CELESTRAK","updated_at":"2026-09-20T09:00:14.576633Z"}}